timestamp,wind_dir_avg,wind_spd_avg,wind_spd_max_dir,wind_spd_gust,battery_voltage,lat,long
2023-03-01 00:04:00+00:00,1.0,6.04,4.0,7.35,12.33,47.59359,-54.27349
2023-03-01 00:14:00+00:00,355.0,7.2,345.0,9.53,12.25,47.59359,-54.27349
2023-03-01 00:24:00+00:00,356.0,7.38,356.0,8.97,12.25,47.59359,-54.27349
2023-03-01 00:34:00+00:00,358.0,7.06,24.0,8.84,12.25,47.59359,-54.27349
2023-03-01 00:44:00+00:00,17.0,7.47,11.0,9.3,12.25,47.59359,-54.27349
2023-03-01 00:54:00+00:00,347.0,7.35,349.0,9.88,12.25,47.59359,-54.27349
2023-03-01 01:04:00+00:00,25.0,7.69,25.0,8.89,12.25,47.59359,-54.27349
2023-03-01 01:14:00+00:00,355.0,7.82,354.0,9.5,12.25,47.59359,-54.27349
2023-03-01 01:24:00+00:00,5.0,6.25,348.0,7.67,12.25,47.59359,-54.27349
2023-03-01 01:34:00+00:00,4.0,6.92,32.0,8.83,12.25,47.59359,-54.27349
2023-03-01 01:44:00+00:00,358.0,6.37,349.0,8.11,12.25,47.59359,-54.27349
2023-03-01 01:54:00+00:00,7.0,7.29,20.0,8.48,12.25,47.59359,-54.27349
2023-03-01 02:04:00+00:00,3.0,8.44,10.0,10.37,12.25,47.59359,-54.27349
2023-03-01 02:14:00+00:00,0.0,8.49,352.0,9.65,12.17,47.59359,-54.27349
2023-03-01 02:24:00+00:00,29.0,8.62,30.0,9.93,12.17,47.59359,-54.27349
2023-03-01 02:34:00+00:00,7.0,6.66,23.0,8.07,12.17,47.59359,-54.27349
2023-03-01 02:44:00+00:00,23.0,8.36,28.0,9.63,12.17,47.59359,-54.27349
2023-03-01 02:54:00+00:00,350.0,7.05,348.0,8.88,12.17,47.59359,-54.27349
2023-03-01 03:04:00+00:00,357.0,6.78,351.0,8.33,12.17,47.59359,-54.27349
2023-03-01 03:14:00+00:00,349.0,6.88,353.0,8.89,12.17,47.59359,-54.27349
2023-03-01 03:24:00+00:00,354.0,6.19,345.0,7.69,12.17,47.59359,-54.27349
2023-03-01 03:34:00+00:00,356.0,5.98,342.0,7.13,12.17,47.59359,-54.27349
2023-03-01 03:44:00+00:00,359.0,5.99,349.0,8.41,12.17,47.59359,-54.27349
2023-03-01 03:54:00+00:00,9.0,6.21,9.0,7.41,12.17,47.59359,-54.27349
2023-03-01 04:04:00+00:00,12.0,5.27,13.0,6.44,12.17,47.59359,-54.27349
2023-03-01 04:14:00+00:00,20.0,6.37,18.0,7.66,12.09,47.59359,-54.27349
2023-03-01 04:24:00+00:00,20.0,5.78,28.0,6.97,12.09,47.59359,-54.27349
2023-03-01 04:34:00+00:00,19.0,5.34,19.0,6.14,12.09,47.59359,-54.27349
2023-03-01 04:44:00+00:00,1.0,5.34,357.0,6.31,12.09,47.59359,-54.27349
2023-03-01 04:54:00+00:00,5.0,6.57,355.0,7.78,12.09,47.59359,-54.27349
2023-03-01 05:04:00+00:00,2.0,6.12,354.0,7.12,12.09,47.59359,-54.27349
2023-03-01 05:14:00+00:00,1.0,6.3,1.0,7.49,12.09,47.59359,-54.27349
2023-03-01 05:24:00+00:00,344.0,6.73,335.0,7.86,12.09,47.59359,-54.27349
2023-03-01 05:34:00+00:00,344.0,6.1,334.0,7.89,12.09,47.59359,-54.27349
2023-03-01 05:44:00+00:00,346.0,6.03,351.0,7.33,12.09,47.59359,-54.27349
2023-03-01 05:54:00+00:00,349.0,4.78,358.0,5.83,12.09,47.59359,-54.27349
2023-03-01 06:04:00+00:00,321.0,5.22,331.0,6.81,12.09,47.59359,-54.27349
2023-03-01 06:14:00+00:00,322.0,5.93,324.0,6.59,12.01,47.59359,-54.27349
2023-03-01 06:24:00+00:00,320.0,6.12,326.0,7.43,12.01,47.59359,-54.27349
2023-03-01 06:34:00+00:00,326.0,6.6,315.0,8.41,12.01,47.59359,-54.27349
2023-03-01 06:44:00+00:00,322.0,7.33,321.0,8.67,12.01,47.59359,-54.27349
2023-03-01 06:54:00+00:00,331.0,6.85,325.0,8.31,12.01,47.59359,-54.27349
2023-03-01 07:04:00+00:00,347.0,7.25,333.0,8.73,12.01,47.59359,-54.27349
2023-03-01 07:14:00+00:00,333.0,7.77,338.0,9.44,12.01,47.59359,-54.27349
2023-03-01 07:24:00+00:00,359.0,6.65,339.0,8.7,12.01,47.59359,-54.27349
2023-03-01 07:34:00+00:00,345.0,6.87,327.0,8.99,12.01,47.59359,-54.27349
2023-03-01 07:44:00+00:00,358.0,8.02,3.0,9.91,12.01,47.59359,-54.27349
2023-03-01 07:54:00+00:00,348.0,7.88,329.0,9.42,12.01,47.59359,-54.27349
2023-03-01 08:04:00+00:00,347.0,7.96,332.0,9.18,12.01,47.59359,-54.27349
2023-03-01 08:14:00+00:00,340.0,8.37,327.0,9.59,11.93,47.59359,-54.27349
2023-03-01 08:24:00+00:00,341.0,7.33,328.0,8.63,11.93,47.59359,-54.27349
2023-03-01 08:34:00+00:00,8.0,7.23,2.0,8.27,11.93,47.59359,-54.27349
2023-03-01 08:44:00+00:00,6.0,6.64,12.0,8.26,11.93,47.59359,-54.27349
2023-03-01 08:54:00+00:00,10.0,6.09,6.0,7.69,11.93,47.59359,-54.27349
2023-03-01 09:04:00+00:00,326.0,6.42,317.0,8.03,11.93,47.59359,-54.27349
2023-03-01 09:14:00+00:00,327.0,7.66,329.0,8.48,11.93,47.59359,-54.27349
2023-03-01 09:24:00+00:00,323.0,8.97,320.0,10.05,11.93,47.59359,-54.27349
2023-03-01 09:34:00+00:00,327.0,7.23,317.0,9.3,11.93,47.59359,-54.27349
2023-03-01 09:44:00+00:00,3.0,6.92,4.0,8.46,11.93,47.59359,-54.27349
2023-03-01 09:54:00+00:00,345.0,7.58,324.0,9.16,11.93,47.59359,-54.27349
2023-03-01 10:04:00+00:00,335.0,7.4,324.0,9.23,11.93,47.59359,-54.27349
2023-03-01 10:14:00+00:00,335.0,7.06,324.0,8.79,11.93,47.59359,-54.27349
2023-03-01 10:24:00+00:00,7.0,6.19,8.0,7.06,11.93,47.59359,-54.27349
2023-03-01 10:34:00+00:00,341.0,7.5,329.0,10.04,11.93,47.59359,-54.27349
2023-03-01 10:44:00+00:00,333.0,7.17,327.0,8.82,11.93,47.59359,-54.27349
2023-03-01 10:54:00+00:00,321.0,7.58,318.0,8.86,11.93,47.59359,-54.27349
2023-03-01 11:04:00+00:00,349.0,6.46,320.0,8.11,11.93,47.59359,-54.27349
2023-03-01 11:14:00+00:00,352.0,6.88,332.0,8.91,13.92,47.59359,-54.27349
2023-03-01 11:24:00+00:00,341.0,6.96,321.0,9.91,13.92,47.59359,-54.27349
2023-03-01 11:34:00+00:00,327.0,6.31,318.0,7.72,13.92,47.59359,-54.27349
2023-03-01 11:44:00+00:00,319.0,6.66,321.0,7.7,13.92,47.59359,-54.27349
2023-03-01 11:54:00+00:00,5.0,4.11,356.0,5.13,13.92,47.59359,-54.27349
2023-03-01 12:04:00+00:00,18.0,4.89,23.0,5.8,13.92,47.59359,-54.27349
2023-03-01 12:14:00+00:00,5.0,6.9,5.0,7.71,14.4,47.59359,-54.27349
2023-03-01 12:24:00+00:00,351.0,6.94,345.0,8.28,14.4,47.59359,-54.27349
2023-03-01 12:34:00+00:00,1.0,7.32,7.0,8.7,14.4,47.59359,-54.27349
2023-03-01 12:44:00+00:00,6.0,7.78,359.0,10.12,14.4,47.59359,-54.27349
2023-03-01 12:54:00+00:00,9.0,7.75,0.0,11.1,14.4,47.59359,-54.27349
2023-03-01 13:04:00+00:00,7.0,8.87,6.0,11.13,14.4,47.59359,-54.27349
2023-03-01 13:14:00+00:00,357.0,10.97,354.0,12.77,14.32,47.59359,-54.27349
2023-03-01 13:24:00+00:00,11.0,10.32,16.0,13.55,14.32,47.59359,-54.27349
2023-03-01 13:34:00+00:00,7.0,9.27,33.0,11.56,14.32,47.59359,-54.27349
2023-03-01 13:44:00+00:00,12.0,9.4,21.0,11.32,14.32,47.59359,-54.27349
2023-03-01 13:54:00+00:00,3.0,8.57,352.0,10.12,14.32,47.59359,-54.27349
2023-03-01 14:04:00+00:00,7.0,7.75,4.0,9.62,14.32,47.59359,-54.27349
2023-03-01 14:14:00+00:00,358.0,8.97,2.0,10.48,14.4,47.59359,-54.27349
2023-03-01 14:24:00+00:00,358.0,10.09,4.0,12.81,14.4,47.59359,-54.27349
2023-03-01 14:34:00+00:00,0.0,9.7,2.0,11.77,14.4,47.59359,-54.27349
2023-03-01 14:44:00+00:00,359.0,9.5,357.0,11.5,14.4,47.59359,-54.27349
2023-03-01 14:54:00+00:00,343.0,9.95,344.0,11.92,14.4,47.59359,-54.27349
2023-03-01 15:04:00+00:00,357.0,9.2,356.0,10.7,14.4,47.59359,-54.27349
2023-03-01 15:14:00+00:00,352.0,11.2,357.0,12.72,14.24,47.59359,-54.27349
2023-03-01 15:24:00+00:00,356.0,9.43,4.0,10.7,14.24,47.59359,-54.27349
2023-03-01 15:34:00+00:00,345.0,10.35,345.0,12.05,14.24,47.59359,-54.27349
2023-03-01 15:44:00+00:00,349.0,9.85,359.0,11.68,14.24,47.59359,-54.27349
2023-03-01 15:54:00+00:00,332.0,8.23,326.0,10.14,14.24,47.59359,-54.27349
2023-03-01 16:04:00+00:00,340.0,8.44,340.0,10.29,14.24,47.59359,-54.27349
2023-03-01 16:14:00+00:00,337.0,10.11,338.0,11.95,13.84,47.59359,-54.27349
2023-03-01 16:24:00+00:00,336.0,11.24,331.0,12.92,13.84,47.59359,-54.27349
2023-03-01 16:34:00+00:00,341.0,9.99,327.0,11.87,13.84,47.59359,-54.27349
2023-03-01 16:44:00+00:00,351.0,8.96,1.0,11.93,13.84,47.59359,-54.27349
2023-03-01 16:54:00+00:00,344.0,11.42,344.0,12.67,13.84,47.59359,-54.27349
2023-03-01 17:04:00+00:00,359.0,9.24,1.0,10.88,13.84,47.59359,-54.27349
2023-03-01 17:14:00+00:00,356.0,9.05,356.0,11.2,14.0,47.59359,-54.27349
2023-03-01 17:24:00+00:00,345.0,7.31,344.0,8.2,14.0,47.59359,-54.27349
2023-03-01 17:34:00+00:00,346.0,9.07,343.0,10.72,14.0,47.59359,-54.27349
2023-03-01 17:44:00+00:00,357.0,7.53,356.0,9.29,14.0,47.59359,-54.27349
2023-03-01 17:54:00+00:00,353.0,7.62,359.0,8.45,14.0,47.59359,-54.27349
2023-03-01 18:04:00+00:00,345.0,8.17,344.0,9.57,14.0,47.59359,-54.27349
2023-03-01 18:14:00+00:00,344.0,7.72,346.0,8.86,14.16,47.59359,-54.27349
2023-03-01 18:24:00+00:00,356.0,7.0,3.0,8.33,14.16,47.59359,-54.27349
2023-03-01 18:34:00+00:00,347.0,9.53,347.0,10.82,14.16,47.59359,-54.27349
2023-03-01 18:44:00+00:00,349.0,9.37,350.0,12.06,14.16,47.59359,-54.27349
2023-03-01 18:54:00+00:00,347.0,9.5,349.0,10.77,14.16,47.59359,-54.27349
2023-03-01 19:04:00+00:00,343.0,9.57,346.0,11.35,14.16,47.59359,-54.27349
2023-03-01 19:14:00+00:00,348.0,9.75,352.0,11.03,14.32,47.59359,-54.27349
2023-03-01 19:24:00+00:00,332.0,7.7,351.0,9.98,14.32,47.59359,-54.27349
2023-03-01 19:34:00+00:00,329.0,8.17,313.0,10.16,14.32,47.59359,-54.27349
2023-03-01 19:44:00+00:00,316.0,10.11,321.0,11.97,14.32,47.59359,-54.27349
2023-03-01 19:54:00+00:00,329.0,8.92,314.0,11.16,14.32,47.59359,-54.27349
2023-03-01 20:04:00+00:00,337.0,8.19,334.0,10.04,14.32,47.59359,-54.27349
2023-03-01 20:14:00+00:00,346.0,7.67,339.0,9.04,13.6,47.59359,-54.27349
2023-03-01 20:24:00+00:00,344.0,6.96,345.0,8.52,13.6,47.59359,-54.27349
2023-03-01 20:34:00+00:00,345.0,8.64,338.0,10.22,13.6,47.59359,-54.27349
2023-03-01 20:44:00+00:00,340.0,7.88,340.0,9.67,13.6,47.59359,-54.27349
2023-03-01 20:54:00+00:00,348.0,8.12,348.0,9.86,13.6,47.59359,-54.27349
2023-03-01 21:04:00+00:00,349.0,8.82,348.0,11.27,13.6,47.59359,-54.27349
2023-03-01 21:14:00+00:00,354.0,9.87,349.0,11.42,13.29,47.59359,-54.27349
2023-03-01 21:24:00+00:00,353.0,8.62,353.0,9.93,13.29,47.59359,-54.27349
2023-03-01 21:34:00+00:00,347.0,10.1,352.0,12.29,13.29,47.59359,-54.27349
2023-03-01 21:44:00+00:00,350.0,10.87,357.0,12.62,13.29,47.59359,-54.27349
2023-03-01 21:54:00+00:00,347.0,9.17,347.0,10.73,13.29,47.59359,-54.27349
2023-03-01 22:04:00+00:00,344.0,10.55,344.0,12.61,13.29,47.59359,-54.27349
2023-03-01 22:14:00+00:00,337.0,11.46,334.0,12.9,12.49,47.59359,-54.27349
2023-03-01 22:24:00+00:00,335.0,11.5,329.0,13.36,12.49,47.59359,-54.27349
2023-03-01 22:34:00+00:00,343.0,9.52,345.0,11.35,12.49,47.59359,-54.27349
2023-03-01 22:44:00+00:00,340.0,10.16,335.0,11.99,12.49,47.59359,-54.27349
2023-03-01 22:54:00+00:00,335.0,10.27,329.0,11.86,12.49,47.59359,-54.27349
2023-03-01 23:04:00+00:00,328.0,10.16,324.0,12.5,12.49,47.59359,-54.27349
2023-03-01 23:14:00+00:00,337.0,9.56,340.0,10.89,12.33,47.59359,-54.27349
2023-03-01 23:24:00+00:00,344.0,10.04,341.0,11.92,12.33,47.59359,-54.27349
2023-03-01 23:34:00+00:00,328.0,10.87,344.0,12.75,12.33,47.59359,-54.27349
2023-03-01 23:44:00+00:00,325.0,11.39,323.0,13.08,12.33,47.59359,-54.27349
2023-03-01 23:54:00+00:00,327.0,13.13,324.0,15.48,12.33,47.59359,-54.27349
